Back to catalog

BREEZE-M DEB

TANK

AliveHEO
NORAD 44627·DEBRIS·🇷🇺 Russia

Launched Oct 9, 2019 from Baikonur Cosmodrome

Loading…

Next Passes (next 24 hours)

TLE

FreshSource: Space-Track

Epoch: Sep 9, 2026, 00:13 UTC

1 44627U 19067D   26252.00906038  .00001766  00000-0  34644-3 0  9993
2 44627  50.3027 171.6838 5798011 264.5902  30.6604  4.34283440107532

Track BREEZE-M DEB in real time with AllMySat

Download on the App Store